User: anonymous   Login
Location: Unspecified
(0.0000°N, 0.0000°E)
Time: 23:58:20
(UTC+00:00)
Language:

STARLINK-36427 - Orbit

View from above orbital plane
View from above orbital plane
View from above satellite
View from above satellite

Ground track
Ground track

The orbit is defined by the following mean orbital elements,

1 67333U          26145.03144779 +.00000000 +00000-0 +35352-3 0 00009
2 67333  43.0023 254.1795 0002126 279.1476  80.9135 15.27586798    00
Epoch (UTC): 25 May 2026 00:45:17
Eccentricity: 0.0002126
inclination: 43.0023°
perigee height: 482 km
apogee height: 484 km
right ascension of ascending node: 254.1795°
argument of perigee: 279.1476°
revolutions per day: 15.27586798
mean anomaly at epoch: 80.9135°

The dashed part of the orbit path shows where the satellite is in the earth's shadow,  

DLR